Showing default

O3B FM20, 44112

Orbit data source: Space-Track

O3B FM20, 44112 is a payload satellite owned by O3B SES (JE) that was launched on Thu, 04 Apr 2019 UTC via a SOYUZ-ST-B launch vehicle from the French Guiana (FRGUI). Payload-class satellites include a variety of spacecraft equipped with specific instruments for various scientific and technological missions. These include communications satellites like Starlink; space stations such as the ISS; scientific satellites like the Hubble; Earth observation satellites from companies like Planet Labs, Umbra, and HawkEye 360; GPS; miniature CubeSats for education and research; and military/defense satellites.

Loading next visibility...
Identifier
44112, 2019-020A
Orbit
Active
Country
Flag of UnknownUnknown / O3B
Related business
Manufacturer
Thales Alenia
Mission
Operational Commercial Communications
Bus & Motor
PRISMA?, LS-400 AOCS?
Mass
700 kg wet, ~500 kg dry
Launch date (UTC)
2019-04-04 (7 years ago)
Launch vehicle
SOYUZ-ST-B
Launch site
French Guiana (FRGUI)
Object type
Payload
Rocket body
Debris
Shape & HBR
Trap Box + 2 Pan, 6.0 m
Radar Cross Section
21.980 m², Large (>1 m²)

Expand to show TLE details & history
Last TLE update: 11 hours ago

TLE from 11 hours ago
0 O3B FM20
1 44112U 19020A   26037.88331197 -.00000023  00000-0  00000+0 0  9997
2 44112   0.0500 359.4847 0002940 306.7330  53.7491  5.00115486125058
Epoch: 2026-02-06T21:11Z
TLE epoch observation values (Epoch: 2026-02-06T21:11:58.154Z)
Latitude
-0.00339°
Longitude
-95.00705°
Altitude
8,061.859 km
Speed
5.255 km/s
True Right ascension
00h 00m 00s
True Declination
0° 00' 12"
Sunlit
Object was in daylight at epoch
Visualization orbit readout
Latitude
Unknown
Longitude
Unknown
Altitude
Unknown
Speed
Unknown
Apparent Right ascension
Unknown
Apparent Declination
Unknown
Sunlit
N/A
Visualization observer readout
Local Sidereal Time
10:38:52
Azimuth
Unknown
Elevation
Unknown
Doppler factor
Unknown
Orbital elements
Apogee altitude
8,073.196 km
Perigee altitude
8,064.701 km
Semi-major axis
14,447.086 km
Eccentricity
0.00029
Inclination
0.05°
RAAN
359.4847°
Arg. of periapsis
306.733°
True anomaly
53.77627°
Mean anomaly
53.7491°
Eccentric anomaly
53.76269°
Mean motion
1.24989 °/min
Orbital period
288.02 mins
BSTAR
0
Loading maneuver chart data...
Computing Atmospheric mass density...
Loading historical data...
Loading historical data...
Loading historical data...
Loading historical data...
Loading historical data...
Loading historical data...
Loading historical data...
Other satellites on launch #20 in the year 2019 (2019-04-04 UTC)

Documentation

Showing up to 5 results
|